Hourly Data Report for July 21, 2009

PITT MEADOWS CS
BRITISH COLUMBIA

49°12'29.964" N
122°41'24.076" W
5.00 m
1106178
71775
WMM

Download Data

Hourly Data (July 2009)
Hourly Data Report for July 21, 2009
TIME
LST
Temp Definition
°C
Dew Point Definition
°C
Rel Hum Definition
%
Precip. Amount Definition
mm

Wind Dir Definition
10's deg

Wind Spd Definition
km/h
Visibility Definition
km
Stn Press Definition
kPa
Hmdx Definition


Wind Chill Definition


Weather Definition


00:00 16.9 13.8 82   14 2   101.37     LegendNANA
01:00 15.2 13.1 87   18 2   101.36     LegendNANA
02:00 15.3 14.4 94     0   101.37     LegendNANA
03:00 14.0 13.2 95   31 2   101.37     LegendNANA
04:00 13.9 12.7 92     0   101.40     LegendNANA
05:00 13.7 12.5 92     0   101.41     LegendNANA
06:00 17.3 14.8 85     0   101.46     LegendNANA
07:00 20.4 15.4 73   31 2   101.46 25   LegendNANA
08:00 21.3 14.9 67   14 6   101.46 25   LegendNANA
09:00 23.4 14.9 59   19 4   101.45 27   LegendNANA
10:00 25.7 15.5 53   24 6   101.43 30   LegendNANA
11:00 27.0 13.7 44   19 4   101.40 30   LegendNANA
12:00 28.9 14.4 41   25 6   101.37 33   LegendNANA
13:00 29.3 16.3 45   20 6   101.34 34   LegendNANA
14:00 30.1 16.9 45   17 6   101.27 35   LegendNANA
15:00 31.3 14.4 36   27 9   101.24 35   LegendNANA
16:00 30.3 14.0 37   26 7   101.18 34   LegendNANA
17:00 29.1 16.3 46   19 9   101.17 34   LegendNANA
18:00 27.4 14.7 46   18 7   101.17 31   LegendNANA
19:00 26.0 14.5 49   20 6   101.16 30   LegendNANA
20:00 23.4 14.5 57   19 6   101.17 27   LegendNANA
21:00 20.3 14.4 69     0   101.22     LegendNANA
22:00 18.6 14.5 77   14 4   101.24     LegendNANA
23:00 17.5 14.0 80   13 2   101.26     LegendNANA

Notes on Data Quality.

Legend

  • E = Estimated
  • M = Missing
  • NA = Not Available*
  • [empty] = Indicates an unobserved value
Date modified: